ICEYE-X48

导读 | 星芒AI

ICEYE-X48 是 ICEYE 公司发射的一颗合成孔径雷达(SAR)成像卫星,具备高分辨率和全天候、全天时成像能力。该卫星采用小型卫星平台,旨在提供灵活、快速的地球观测服务。ICEYE-X48 与 ICEYE 系列其他卫星协同工作,增强对地观测数据的获取频率和覆盖范围,广泛应用于灾害监测、环境评估、安全与国防等领域。

基本信息
目录编号:
63253
目录名称:
ICEYE-X48
国际标识:
2025-052AV
轨道中心:
EARTH
卫星名称:
ICEYE-X48
卫星全名:
ICEYE-X48
卫星状态:
在轨 (已飞行228 天)
发射日期:
2025-03-15 UTC
国别 :
(TBD)
星等 :
--
轨道信息
数据来源 国际轨道数据
星历时间: 2025-10-28T23:02:48+0800
15小时前
查看轨道信息
半长轴: 6965.057km
偏心率: 0.0000556
轨道倾角: 97.707°
近地点辐角 292.854°
升交点赤经 192.531°
平近点角 67.262°
近地点: 586.534km
远地点: 587.31km
周期: 96.415分钟
每日圈数: 14.935364
详细信息
使用方式:
暂无
2D轨道图
3D轨道图
轨道高度分析图
轨道倾角分析图
轨道综合分析图
查看轨道综合分析图